Weather Roundup
Issued by NWS

Home | Current Version | Previous Version | Graphics & Text | Print | Product List | Glossary Off
Versions: 1 2 3 4 5 6 7 8 9 10 11 12 13 14 15 16 17 18 19 20 21 22 23 24 25 26 27 28 29 30 31 32 33 34 35 36 37 38 39 40 41 42 43 44 45 46 47 48 49 50

000
NZUS93 KARX 272310
HRRWXR

CURRENT HOURLY OBSERVATIONS ACROSS
MUCH OF THE UPPER MISSISSIPPI VALLEY
NATIONAL WEATHER SERVICE LA CROSSE WI
600 PM CDT MON JUL 27 2015


...SOUTHEAST MINNESOTA...


CITY           SKY/WX    TMP DP  RH WIND       PRES   REMARKS
ROCHESTER      PTSUNNY   80  72  76 S12       29.95F
ROCHESTER/MAYO CLOUDY    81  72  73 SE13      29.95S
WINONA         CLOUDY    86  72  62 S3        29.93F HX  92
AUSTIN         PTSUNNY   81  72  74 S7        29.93F
ALBERT LEA     PTSUNNY   81  73  78 SE17G24   29.90F
DODGE CENTER   MOSUNNY   81  72  74 S10       29.95S
PRESTON        CLOUDY    82  71  68 S8        29.96F
OWATONNA       MOSUNNY   82  72  69 SE14      29.91F
FARIBAULT      MOSUNNY   82  72  69 SE13G18   29.92S
$$

...ELSEWHERE IN MINNESOTA...


CITY           SKY/WX    TMP DP  RH WIND       PRES   REMARKS
MINNEAPOLIS    PTSUNNY   84  71  65 SE12      29.90S
INTNL FALLS    PTSUNNY   83  65  54 VRB3      29.88F
DULUTH         MOSUNNY   82  63  52 SE8       29.95S
RED WING       MOSUNNY   84  70  61 SE10G17   29.91S
REDWOOD FALLS  MOSUNNY   83  73  72 SE10      29.84F
MANKATO        MOSUNNY   82  72  69 SE15G22   29.88F
WORTHINGTON    MOSUNNY   82  70  65 S10       29.86F
FAIRMONT       SUNNY     82  66  57 SE17      29.87S
$$

...SOUTHWEST WISCONSIN...


CITY           SKY/WX    TMP DP  RH WIND       PRES   REMARKS
LA CROSSE      PTSUNNY   85  69  58 SE12      29.93F
PRAIRIE DU CHI PTSUNNY   84  66  53 SE6       29.94F
BOSCOBEL       PTSUNNY   86  68  54 S6        29.95F
LONE ROCK      PTSUNNY   84  68  58 SE7       29.97S
PLATTEVILLE    PTSUNNY   83  70  64 S6        29.98S
FORT MC COY    MOSUNNY   84  63  48 S8        29.96F
CAMP DOUGLAS   PTSUNNY   86  66  51 SE8       29.97F
VIROQUA        FAIR      84  68  59 SE8       29.98F
WIS DELLS      MOSUNNY   85  64  49 SE9       29.98F
$$

...ELSEWHERE IN WISCONSIN...


CITY           SKY/WX    TMP DP  RH WIND       PRES   REMARKS
MILWAUKEE      PTSUNNY   81  62  52 E6        30.00F
MADISON        PTSUNNY   84  63  49 SE13      29.98S
GREEN BAY      SUNNY     85  64  49 SE10      30.00F
EAU CLAIRE     PTSUNNY   83  65  54 SE12      29.94F
BLACK RVR FLS  MOCLDY    84  64  50 SE6       29.95F
MEDFORD        SUNNY     79  66  64 SE5       30.01S
WAUSAU         SUNNY     85  61  44 SE12G17   29.99F
WIS RAPIDS     MOSUNNY   86  58  38 SE12      29.99F
MARSHFIELD     MOSUNNY   85  63  47 SE6       30.00R
RICE LAKE      MOSUNNY   82  65  56 SE13      29.97F
$$

...NORTHEAST IOWA...


CITY           SKY/WX    TMP DP  RH WIND       PRES   REMARKS
DECORAH        PTSUNNY   81  72  74 SE6G13    29.95S
MASON CITY     CLOUDY    76  73  91 SE14      29.91F
CHARLES CITY   CLOUDY    81  77  89 SE8       29.94S
OELWEIN        CLOUDY    81  73  78 SE12G17   29.95F
$$

...ELSEWHERE IN IOWA...


CITY           SKY/WX    TMP DP  RH WIND       PRES   REMARKS
DES MOINES     CLOUDY    75  69  81 SE12      29.93F
IOWA CITY      CLOUDY    81  74  79 CALM      29.96F
FORT DODGE     MOSUNNY   81  70  69 CALM      29.90R
$$

...NORTHERN ILLINOIS...


CITY           SKY/WX    TMP DP  RH WIND       PRES   REMARKS
CHICAGO-OHARE  PTSUNNY   84  63  49 E12       29.97S
CHICAGO-MIDWAY PTSUNNY   85  62  46 E14       29.97S
MOLINE         CLOUDY    84  73  69 CALM      29.95R HX  90
ROCKFORD       CLOUDY    85  65  51 E3        29.98F
PEORIA         MOSUNNY   86  72  62 E6        29.94S HX  92
$$

NOTE: "FAIR" INDICATES FEW OR NO CLOUDS BELOW 12,000 FEET WITH NO
SIGNIFICANT WEATHER AND/OR OBSTRUCTIONS TO VISIBILITY. WIND
SPEEDS ARE IN MILES-PER-HOUR.



USA.gov is the U.S. government's official web portal to all federal, state and local government web resources and services.